Location: Caltech
(34.1382°N, 118.1253°W)
Time: 04:12:19
(UTC-08:00)

Iridium 3 - Visible Passes

Search period start: 12 December 2017 00:00
Search period end: 22 December 2017 00:00
Orbit: 776 x 779 km, 86.4° (Epoch: 11 December)

Date Brightness Start Highest point End Pass type
(mag) Time Alt. Az. Time Alt. Az. Time Alt. Az.
12 Dec 6.9 06:04:42 10° SSE 06:09:35 42° E 06:14:29 10° NNE visible
12 Dec 5.6 18:18:45 10° N 18:23:59 80° W 18:29:10 10° S visible
13 Dec 8.0 05:32:21 10° SE 05:36:17 22° E 05:40:13 10° NNE visible
13 Dec 5.6 17:45:21 10° N 17:50:27 52° E 17:55:31 10° SSE visible
13 Dec 8.4 19:27:57 10° NW 19:30:37 14° W 19:33:16 10° WSW visible
14 Dec 8.6 05:01:40 10° E 05:03:05 11° ENE 05:04:29 10° ENE visible
14 Dec 6.4 17:12:24 10° NNE 17:16:48 27° E 17:21:10 10° SE visible
14 Dec 7.5 18:53:02 10° NNW 18:57:23 27° W 19:01:43 10° SW visible
15 Dec 6.1 06:04:29 10° S 06:09:37 64° E 06:14:47 10° N visible
15 Dec 6.3 18:18:58 10° NNW 18:24:03 53° W 18:29:05 10° SSW visible
16 Dec 7.4 05:31:39 10° SSE 05:36:15 32° E 05:40:51 10° NNE visible
16 Dec 5.4 17:45:21 10° N 17:50:34 79° E 17:55:47 10° S visible
17 Dec 8.3 04:59:42 10° ESE 05:02:59 17° E 05:06:15 10° NE visible
17 Dec 6.0 17:12:06 10° NNE 17:17:00 40° E 17:21:52 10° SSE visible
17 Dec 8.1 18:53:49 10° NW 18:57:20 19° W 19:00:50 10° SW visible
18 Dec 5.5 06:04:29 10° S 06:09:42 86° W 06:14:56 10° N visible
18 Dec 7.1 18:19:21 10° NNW 18:24:03 35° W 18:28:45 10° SSW visible
19 Dec 6.5 05:31:16 10° SSE 05:36:15 49° E 05:41:16 10° NNE visible
19 Dec 5.9 17:45:28 10° N 17:50:40 70° W 17:55:50 10° S visible
20 Dec 7.7 04:58:44 10° SE 05:02:55 25° E 05:07:08 10° NNE visible
20 Dec 5.6 17:12:00 10° N 17:17:10 61° E 17:22:18 10° SSE visible
20 Dec 8.5 18:55:15 10° NW 18:57:14 12° W 18:59:13 10° WSW visible
21 Dec 8.5 04:27:25 10° ESE 04:29:43 13° E 04:32:00 10° NE visible
21 Dec 5.6 06:04:43 10° SSW 06:09:49 57° W 06:14:58 10° N visible
21 Dec 7.9 18:19:56 10° NNW 18:24:02 24° W 18:28:08 10° SW visible
